Tracking 18957 objects as of 22-Jan-2018
HD Live streaming from Space Station
objects crossing your sky now

LEMUR 2 MCPEAKE

Track LEMUR 2 MCPEAKE now!
10-day predictions
LEMUR 2 MCPEAKE is classified as:


NORAD ID: 42782
Int'l Code: 2017-036T
Perigee: 500.4 km
Apogee: 516.0 km
Inclination: 97.4 °
Period: 94.6 minutes
Semi major axis: 6879 km
RCS: Unknown
Launch date: June 23, 2017
Source: United States (US)
Launch site: SRIHARIKOTA (SRI)
Uplink (MHz):
Downlink (MHz):
Beacon (MHz):
Mode:
Call sign:
Status:

aabbcc
Your satellite tracking list
Your tracking list is empty




NASA's NSSDC Master Catalog

Two Line Element Set (TLE):
1 42782U 17036T   18021.37027269 +.00001648 +00000-0 +76087-4 0  9999
2 42782 097.4233 083.4626 0011344 222.9094 137.1258 15.21583897032183
Source of the keplerian elements: AFSPC